KD8PH Weather Reports


Display with metric or nautical units.
time (UTC)temp
F
wind
direction
speed
MPH
gust
MPH
rain 1hr
in
rain 24hr
in
rain mn
in
humidity
%
barometer
mb
20260509124543 61 248 1.0 4.0 0.00 0.00 0.00 89 1010.7
20260509123540 61 248 2.0 7.0 0.00 0.00 0.00 90 1010.9
20260509122551 61 315 2.0 5.0 0.00 0.00 0.00 89 1011.0
20260509121540 61 293 2.0 9.0 0.00 0.00 0.00 89 1011.1
20260509120541 61 270 1.0 4.0 0.00 0.00 0.00 90 1011.0
20260509115542 60 225 1.0 6.0 0.00 0.00 0.00 89 1010.7
20260509114546 60 0.0 0.0 0.00 0.00 0.00 89 1010.5
20260509113550 60 0.0 0.0 0.00 0.00 0.00 88 1010.3
20260509112542 60 0.0 0.0 0.00 0.00 0.00 88 1010.1
20260509111603 61 0.0 0.0 0.00 0.00 0.00 88 1009.9
20260509110549 60 0.0 0.0 0.00 0.00 0.00 89 1009.5
20260509105603 60 0.0 0.0 0.00 0.00 0.00 89 1009.6
20260509104546 60 0.0 0.0 0.00 0.00 0.00 88 1009.6
20260509103620 60 0.0 0.0 0.00 0.00 0.00 88 1009.9
20260509102559 60 0.0 0.0 0.00 0.00 0.00 87 1009.7
20260509101543 60 0.0 0.0 0.00 0.00 0.00 87 1009.8
20260509100544 60 0.0 0.0 0.00 0.00 0.00 88 1009.5
20260509095543 59 0.0 0.0 0.00 0.00 0.00 88 1009.7
20260509094536 59 0.0 0.0 0.00 0.00 0.00 89 1009.5
20260509093540 59 0.0 0.0 0.00 0.00 0.00 89 1009.5
20260509092539 59 0.0 0.0 0.00 0.00 0.00 89 1009.6
20260509091536 59 0.0 0.0 0.00 0.00 0.00 89 1009.9
20260509090549 58 0.0 0.0 0.00 0.00 0.00 89 1010.2
20260509085544 59 0.0 0.0 0.00 0.00 0.00 89 1010.3
20260509084537 58 0.0 0.0 0.00 0.00 0.00 89 1010.4
20260509083536 58 0.0 0.0 0.00 0.00 0.00 89 1010.5
20260509082540 58 0.0 0.0 0.00 0.00 0.00 89 1010.5
20260509081542 58 0.0 0.0 0.00 0.00 0.00 90 1010.2
20260509080540 57 0.0 0.0 0.00 0.00 0.00 89 1010.5
20260509075539 57 338 1.0 2.0 0.00 0.00 0.00 90 1010.5
20260509074540 57 0 1.0 2.0 0.00 0.00 0.00 89 1010.4
20260509073540 57 0 1.0 2.0 0.00 0.00 0.00 88 1010.2
20260509072543 57 338 2.0 2.0 0.00 0.00 0.00 88 1010.0
20260509071555 57 338 1.0 2.0 0.00 0.00 0.00 88 1010.1
20260509070600 58 0.0 1.0 0.00 0.00 0.00 87 1010.0
20260509065554 58 23 2.0 3.0 0.00 0.00 0.00 86 1010.2
20260509064548 59 158 1.0 3.0 0.00 0.00 0.00 85 1010.0
20260509063559 59 158 1.0 3.0 0.00 0.00 0.00 84 1010.1
20260509062534 59 180 3.0 6.0 0.00 0.00 0.00 85 1010.1
20260509061600 59 180 1.0 6.0 0.00 0.00 0.00 85 1010.1
20260509060543 59 0.0 0.0 0.00 0.00 0.00 86 1010.4
20260509055537 59 0.0 0.0 0.00 0.00 0.00 87 1010.4
20260509054545 58 0.0 0.0 0.00 0.00 0.00 88 1010.5
20260509053551 58 0.0 0.0 0.00 0.00 0.00 89 1010.6
20260509052553 57 0.0 0.0 0.00 0.00 0.00 87 1010.8
20260509051542 58 0.0 0.0 0.00 0.00 0.00 87 1011.0
20260509050540 58 0.0 1.0 0.00 0.00 0.00 85 1011.2
20260509045542 59 225 3.0 5.0 0.00 0.00 0.00 85 1011.2
20260509044537 59 203 5.0 7.0 0.00 0.00 0.00 85 1011.0
20260509043537 59 203 1.0 3.0 0.00 0.00 0.00 85 1011.1
20260509042536 60 0.0 1.0 0.00 0.00 0.00 84 1011.1
20260509041536 60 248 1.0 3.0 0.00 0.00 0.00 83 1011.3
20260509040551 61 203 1.0 4.0 0.00 0.00 0.00 82 1011.2
20260509035538 61 180 1.0 2.0 0.00 0.00 0.00 81 1011.2
20260509034600 61 135 1.0 3.0 0.00 0.00 0.00 80 1011.3
20260509033555 61 158 1.0 4.0 0.00 0.00 0.00 80 1011.4
20260509032556 61 0.0 2.0 0.00 0.00 0.00 83 1011.4
20260509031550 61 0.0 2.0 0.00 0.00 0.00 81 1011.4
20260509030544 62 158 1.0 4.0 0.00 0.00 0.00 82 1011.6
20260509025538 62 180 1.0 3.0 0.00 0.00 0.00 83 1011.4
20260509024539 62 0.0 2.0 0.00 0.00 0.00 79 1011.6
20260509023553 62 158 1.0 4.0 0.00 0.00 0.00 78 1011.6
20260509022535 63 158 1.0 3.0 0.00 0.00 0.00 78 1011.5
20260509021543 63 180 1.0 4.0 0.00 0.00 0.00 76 1011.7
20260509020538 63 203 3.0 5.0 0.00 0.00 0.00 74 1011.5
20260509015545 63 203 5.0 6.0 0.00 0.00 0.00 75 1011.5
20260509014534 64 225 4.0 6.0 0.00 0.00 0.00 74 1011.4
20260509013534 64 248 2.0 5.0 0.00 0.00 0.00 72 1011.4
20260509012540 64 248 2.0 4.0 0.00 0.00 0.00 73 1011.4
20260509011541 64 225 4.0 6.0 0.00 0.00 0.00 72 1011.3
20260509010542 65 225 3.0 8.0 0.00 0.00 0.00 71 1011.3
20260509005542 65 225 5.0 8.0 0.00 0.00 0.00 70 1011.3
20260509004534 65 225 6.0 11.0 0.00 0.00 0.00 68 1011.2
20260509003555 65 225 6.0 11.0 0.00 0.00 0.00 68 1011.3
20260509002539 66 225 5.0 8.0 0.00 0.00 0.00 67 1011.4
20260509001549 66 248 5.0 10.0 0.00 0.00 0.00 66 1011.7
20260509000555 66 225 6.0 13.0 0.00 0.00 0.00 63 1011.6
20260508235543 66 248 4.0 11.0 0.00 0.00 0.00 62 1011.7
20260508234554 66 225 7.0 12.0 0.00 0.00 0.00 60 1011.7
20260508233553 67 225 6.0 12.0 0.00 0.00 0.00 61 1011.7
20260508232555 67 225 9.0 14.0 0.00 0.00 0.00 59 1011.6
20260508231539 67 225 8.0 14.0 0.00 0.00 0.00 61 1011.5
20260508230541 67 225 8.0 12.0 0.00 0.00 0.00 62 1011.5
20260508225537 67 225 7.0 10.0 0.00 0.00 0.00 59 1011.7
20260508224538 67 225 8.0 12.0 0.00 0.00 0.00 62 1011.8
20260508223545 68 225 6.0 11.0 0.00 0.00 0.00 63 1011.6
20260508222544 68 225 6.0 12.0 0.00 0.00 0.00 57 1011.7
20260508221536 68 248 6.0 11.0 0.00 0.00 0.00 56 1011.7
20260508220541 68 225 7.0 11.0 0.00 0.00 0.00 55 1011.8
20260508215536 68 225 7.0 10.0 0.00 0.00 0.00 55 1012.0
20260508214541 68 225 9.0 13.0 0.00 0.00 0.00 55 1011.9
20260508213543 69 225 8.0 14.0 0.00 0.00 0.00 57 1011.8
20260508212537 69 225 8.0 13.0 0.00 0.00 0.00 56 1011.8
20260508211539 69 225 7.0 15.0 0.00 0.00 0.00 54 1011.8
20260508210535 69 225 7.0 13.0 0.00 0.00 0.00 53 1011.7
20260508205542 69 203 4.0 11.0 0.00 0.00 0.00 58 1011.7
20260508204542 69 225 4.0 7.0 0.00 0.00 0.00 54 1011.9
20260508203539 69 158 1.0 4.0 0.00 0.00 0.00 50 1011.8
20260508202546 69 158 1.0 5.0 0.00 0.00 0.00 49 1012.0
20260508201600 69 180 2.0 5.0 0.00 0.00 0.00 51 1012.3
20260508200537 69 180 1.0 5.0 0.00 0.00 0.00 49 1012.3
20260508195605 69 158 1.0 8.0 0.00 0.00 0.00 50 1012.3
20260508194541 69 180 2.0 6.0 0.00 0.00 0.00 51 1012.1
20260508193546 69 135 3.0 7.0 0.00 0.00 0.00 51 1012.2
20260508192540 69 113 2.0 4.0 0.00 0.00 0.00 49 1012.4
20260508191540 68 135 3.0 7.0 0.00 0.00 0.00 50 1012.6
20260508190554 68 135 2.0 4.0 0.00 0.00 0.00 51 1012.9
20260508185544 68 135 2.0 7.0 0.00 0.00 0.00 48 1012.9
20260508184546 68 23 2.0 6.0 0.00 0.00 0.00 50 1013.1
20260508183540 68 113 2.0 4.0 0.00 0.00 0.00 53 1013.2
20260508182551 69 0.0 3.0 0.00 0.00 0.00 48 1013.5
20260508181535 68 0.0 2.0 0.00 0.00 0.00 48 1013.8
20260508180539 68 113 1.0 2.0 0.00 0.00 0.00 48 1014.0
20260508175536 67 158 1.0 4.0 0.00 0.00 0.00 50 1014.2
20260508174539 67 180 1.0 3.0 0.00 0.00 0.00 49 1014.0
20260508173540 67 45 2.0 6.0 0.00 0.00 0.00 49 1014.3
20260508172548 67 135 2.0 5.0 0.00 0.00 0.00 51 1014.6
20260508171539 67 248 1.0 5.0 0.00 0.00 0.00 49 1014.7
20260508170543 66 135 2.0 5.0 0.00 0.00 0.00 51 1014.6
20260508165553 66 203 2.0 7.0 0.00 0.00 0.00 51 1015.4
20260508164549 66 135 1.0 3.0 0.00 0.00 0.00 53 1015.3
20260508163550 66 90 1.0 3.0 0.00 0.00 0.00 55 1015.4
20260508162559 65 135 1.0 2.0 0.00 0.00 0.00 53 1015.5
20260508161543 65 225 1.0 3.0 0.00 0.00 0.00 56 1015.4
20260508160541 64 135 2.0 4.0 0.00 0.00 0.00 55 1015.6
20260508155534 64 135 3.0 5.0 0.00 0.00 0.00 58 1015.7
20260508154543 64 135 2.0 4.0 0.00 0.00 0.00 58 1016.0
20260508153537 63 113 2.0 4.0 0.00 0.00 0.00 63 1016.0
20260508152540 63 113 2.0 3.0 0.00 0.00 0.00 64 1016.2
20260508151538 62 135 1.0 3.0 0.00 0.00 0.00 67 1016.2
20260508150539 61 113 2.0 6.0 0.00 0.00 0.00 70 1016.2
20260508145536 61 45 2.0 5.0 0.00 0.00 0.00 71 1016.3
20260508144535 61 135 2.0 4.0 0.00 0.00 0.00 71 1016.6
20260508143536 61 113 1.0 2.0 0.00 0.00 0.00 72 1016.7
20260508142534 60 45 2.0 5.0 0.00 0.00 0.00 74 1016.7
20260508141550 60 135 2.0 6.0 0.00 0.00 0.00 74 1016.8
20260508140544 60 45 2.0 4.0 0.00 0.00 0.00 76 1016.8
20260508135532 59 90 2.0 5.0 0.00 0.00 0.00 76 1016.8
20260508134535 59 45 2.0 4.0 0.00 0.00 0.00 78 1016.6
20260508133545 59 45 2.0 5.0 0.00 0.00 0.00 77 1016.6
20260508132539 58 45 2.0 6.0 0.00 0.00 0.00 79 1016.6
20260508131538 58 113 3.0 6.0 0.00 0.00 0.00 79 1016.6
20260508130540 58 90 3.0 7.0 0.00 0.00 0.00 83 1016.5
20260508125535 57 113 5.0 8.0 0.00 0.00 0.00 84 1016.5